Farmington, NM

7:09 AM MST on February 14, 2016 (GMT -0700)
Mojave St & Butler Ave | | Change Station
CLOSE
Current Station
Personal Weather Station
Location: Farmington, NM
Elevation: 5413 ft
Nearby Weather Stations

Elev 5413 ft 36.74 °N, 108.20 °W | Updated 13 minutes ago

Clear
Clear
25.2 °F
Feels Like 20 °F
N
4.2
Wind Variable Wind from ESE

Today
High -- | Low -- °F
--% Chance of Precip.
Yesterday
High -- | Low -- °F
Precip. -- in
Pressure 30.17 in
Visibility 10.0 miles
Clouds Clear
Windchill 20 °F
Dew Point 25 °F
Humidity 99%
Rainfall 0.00 in
Snow Depth Not available.
7:02 AM 5:51 PM
Waxing Crescent, 42% visible
METAR KFMN 141353Z 09008KT 10SM CLR M04/M07 A3014 RMK AO2 SLP214 T10391067
Pressure 30.17 in
Visibility 10.0 miles
Clouds Clear
Windchill 20 °F
Dew Point 25 °F
Humidity 99%
Rainfall 0.00 in
Snow Depth Not available.
7:02 AM 5:51 PM
Waxing Crescent, 42% visible
METAR KFMN 141353Z 09008KT 10SM CLR M04/M07 A3014 RMK AO2 SLP214 T10391067

10-Day Weather Forecast

Almanac

Astronomy

Feb. 14, 2016 Rise Set
Actual Time
Civil Twilight
Nautical Twilight
Astronomical Twilight
Moon
Length of Visible Light
Length of Day
Tomorrow will be .
, % of the Moon is Illuminated

Today's Extremes

State Highs State Lows

Community

WunderPhotos

Upload Photos

1,892,797 photos uploaded!

WunderBlog® & News

Nearby

Air Quality

  Air Quality AQ Index Pollutant
Not available.

Snow Depth

Station Depth Elevation

Earthquake Activity

City Distance Mag. Time & Date
Minimum magnitude displayed is 2.5.

Coastal Water Temperatures

Place Temperature

Stations

Nearby Weather Stations

Station Location Temp. Windchill Dew Point Humidity Wind Precip. Elev Updated Type
                   

Watches & Warnings

There are currently no watches in effect.